Falfurrias, TX

8:02 AM CST on December 06, 2019 (GMT -0600)
Falfurrias

Weather History for KBKS - October, 2019

Change the Weather History Date:

Thursday, October 3, 2019

  Actual Average (KNQI) Record (KNQI)
Temperature  
Mean Temperature 81 °F -  
Max Temperature 89 °F 84 °F 93 °F (2000)
Min Temperature 74 °F 66 °F 59 °F (2010)
Cooling Degree Days 16    
Growing Degree Days 31 (Base 50)    
Moisture  
Dew Point 73 °F    
Average Humidity 84    
Maximum Humidity 91    
Minimum Humidity 56    
Precipitation  
Precipitation 0.13 in - - ()
Sea Level Pressure  
Sea Level Pressure 29.96 in    
Wind  
Wind Speed 2 mph ()    
Max Wind Speed 12 mph    
Max Gust Speed 18 mph    
Visibility 8.6 miles    
Events      
Averages and records for this station are not official NWS values.
T = Trace of Precipitation, MM = Missing Value Source: Averaged Metar Reports

Daily Weather History Graph

Daily Weather History Graph

Search for Another Location

Airport or City:

Astronomy

Oct. 03, 2019 Rise Set
Actual Time 7:26 AM CDT 7:16 PM CDT
Civil Twilight 7:02 AM CDT 7:39 PM CDT
Nautical Twilight 6:35 AM CDT 8:06 PM CDT
Astronomical Twilight 6:08 AM CDT 8:33 PM CDT
Moon 12:32 PM CDT (10/3) 11:23 PM CDT (10/3)
Length of Visible Light 12h 37m
Length of Day
11h 50m
Waxing Crescent, 30% of the Moon is Illuminated
Oct 3
Waxing Crescent
Oct 5
First Quarter
Oct 13
Full
Oct 21
Last Quarter
Oct 27
New

Hourly Weather History & Observations

Time (CDT) Temp. Heat Index Dew Point Humidity Pressure Visibility Wind Dir Wind Speed Gust Speed Precip Events Conditions
12:15 AM 78.1 °F - 74.3 °F 88% 29.93 in 10.0 mi Calm Calm - N/A   Clear
12:35 AM 77.9 °F - 74.3 °F 89% 29.93 in 10.0 mi Calm Calm - N/A   Clear
12:55 AM 78.1 °F - 74.3 °F 88% 29.93 in 10.0 mi Calm Calm - N/A   Clear
1:15 AM 78.1 °F - 74.3 °F 88% 29.93 in 10.0 mi Calm Calm - N/A   Clear
1:35 AM 77.9 °F - 74.3 °F 89% 29.93 in 10.0 mi Calm Calm - N/A   Clear
1:55 AM 78.3 °F - 74.3 °F 88% 29.93 in 10.0 mi Calm Calm - N/A   Clear
2:15 AM 77.7 °F - 73.8 °F 88% 29.93 in 10.0 mi Calm Calm - N/A   Clear
2:35 AM 77.0 °F - 73.6 °F 89% 29.93 in 7.0 mi Calm Calm - N/A   Clear
2:55 AM 77.0 °F - 73.8 °F 90% 29.93 in 7.0 mi Calm Calm - N/A   Clear
3:15 AM 77.0 °F - 73.8 °F 90% 29.93 in 7.0 mi Calm Calm - N/A   Clear
3:35 AM 76.8 °F - 73.6 °F 90% 29.93 in 7.0 mi North 3.5 mph - N/A   Clear
3:55 AM 77.2 °F - 74.1 °F 90% 29.93 in 7.0 mi North 3.5 mph - N/A   Scattered Clouds
4:15 AM 77.2 °F - 74.1 °F 90% 29.93 in 7.0 mi Calm Calm - N/A   Scattered Clouds
4:35 AM 76.8 °F - 73.6 °F 90% 29.93 in 5.0 mi Calm Calm - N/A   Clear
4:55 AM 77.0 °F - 73.8 °F 90% 29.93 in 5.0 mi Calm Calm - N/A   Clear
5:15 AM 76.3 °F - 73.4 °F 91% 29.93 in 5.0 mi Calm Calm - N/A   Clear
5:35 AM 76.3 °F - 73.4 °F 91% 29.93 in 5.0 mi WNW 3.5 mph - N/A   Scattered Clouds
5:55 AM 76.3 °F - 73.6 °F 91% 29.93 in 7.0 mi Calm Calm - N/A   Scattered Clouds
6:15 AM 76.1 °F - 73.4 °F 91% 29.94 in 7.0 mi North 3.5 mph - N/A   Clear
6:35 AM 75.7 °F - 72.9 °F 91% 29.94 in 7.0 mi Calm Calm - N/A   Clear
6:55 AM 75.6 °F - 72.7 °F 91% 29.94 in 5.0 mi NNE 3.5 mph - N/A   Clear
7:15 AM 75.6 °F - 72.9 °F 91% 29.95 in 5.0 mi Calm Calm - N/A   Clear
7:35 AM 75.6 °F - 72.9 °F 91% 29.95 in 5.0 mi Calm Calm - N/A   Clear
7:55 AM 75.6 °F - 72.9 °F 91% 29.96 in 5.0 mi Calm Calm - N/A   Clear
8:15 AM 76.3 °F - 73.6 °F 91% 29.96 in 5.0 mi Calm Calm - N/A   Scattered Clouds
8:35 AM 77.5 °F - 74.3 °F 90% 29.96 in 7.0 mi Calm Calm - N/A   Clear
8:55 AM 79.2 °F - 74.7 °F 86% 29.98 in 10.0 mi Calm Calm - N/A   Clear
9:15 AM 80.6 °F 86.2 °F 75.4 °F 84% 29.98 in 10.0 mi Calm Calm - N/A   Clear
9:35 AM 82.4 °F 89.5 °F 75.4 °F 79% 29.99 in 10.0 mi NNW 3.5 mph - N/A   Clear
9:55 AM 84.6 °F 93.5 °F 75.7 °F 75% 29.99 in 10.0 mi Calm Calm - N/A   Clear
10:15 AM 86.2 °F 95.5 °F 75.6 °F 70% 29.99 in 10.0 mi East 3.5 mph - N/A   Clear
10:35 AM 86.2 °F 94.6 °F 74.7 °F 68% 29.99 in 10.0 mi NE 3.5 mph - N/A   Scattered Clouds
10:55 AM 87.6 °F 95.2 °F 73.2 °F 62% 29.99 in 10.0 mi NE 5.8 mph - N/A   Clear
11:15 AM 88.2 °F 96.4 °F 73.6 °F 62% 29.99 in 10.0 mi NE 4.6 mph - N/A   Scattered Clouds
11:35 AM 88.5 °F 94.9 °F 71.4 °F 57% 29.99 in 10.0 mi ESE 3.5 mph - N/A   Mostly Cloudy
11:55 AM 88.9 °F 95.1 °F 71.2 °F 56% 29.99 in 4.0 mi Calm Calm - N/A   Mostly Cloudy
12:15 PM 88.5 °F 94.9 °F 71.6 °F 57% 29.98 in 10.0 mi Calm Calm - N/A   Mostly Cloudy
12:35 PM 86.5 °F 93.3 °F 72.5 °F 63% 29.98 in 10.0 mi Calm Calm - N/A   Overcast
12:55 PM 84.0 °F 91.2 °F 73.9 °F 72% 29.98 in 7.0 mi NE 3.5 mph - N/A   Overcast
1:15 PM 87.1 °F 94.9 °F 73.4 °F 64% 29.97 in 10.0 mi ENE 10.4 mph - N/A   Mostly Cloudy
1:35 PM 86.0 °F 93.0 °F 73.2 °F 65% 29.97 in 7.0 mi NE 5.8 mph - N/A   Mostly Cloudy
1:55 PM 85.5 °F 92.2 °F 73.0 °F 66% 29.98 in 2.0 mi East 10.4 mph - N/A   Overcast
2:15 PM 79.0 °F - 73.2 °F 82% 29.96 in 1.0 mi Calm Calm - 0.12 in   Overcast
2:35 PM 80.8 °F 85.9 °F 74.1 °F 80% 29.97 in 10.0 mi NE 4.6 mph - 0.12 in   Mostly Cloudy
2:55 PM 81.1 °F 87.0 °F 74.8 °F 81% 29.96 in 10.0 mi NE 4.6 mph - 0.12 in   Mostly Cloudy
3:15 PM 80.1 °F 84.6 °F 74.1 °F 82% 29.96 in 10.0 mi NE 3.5 mph - N/A   Scattered Clouds
3:35 PM 78.3 °F - 72.5 °F 82% 29.96 in 10.0 mi NE 3.5 mph - N/A   Mostly Cloudy
3:55 PM 78.1 °F - 73.4 °F 85% 29.97 in 10.0 mi NE 8.1 mph - N/A   Scattered Clouds
4:15 PM 76.6 °F - 71.6 °F 84% 29.97 in 10.0 mi NE 11.5 mph 18.4 mph N/A   Mostly Cloudy
4:35 PM 75.6 °F - 71.2 °F 86% 29.97 in 10.0 mi ENE 8.1 mph - N/A   Scattered Clouds
4:55 PM 75.2 °F - 71.1 °F 87% 29.95 in 10.0 mi East 8.1 mph - N/A   Clear
5:15 PM 75.2 °F - 70.7 °F 86% 29.95 in 10.0 mi ENE 5.8 mph - N/A   Scattered Clouds
5:35 PM 75.2 °F - 70.9 °F 86% 29.94 in 10.0 mi ENE 6.9 mph - N/A   Scattered Clouds
5:55 PM 74.7 °F - 70.7 °F 87% 29.93 in 10.0 mi Calm Calm - N/A   Mostly Cloudy
6:15 PM 74.8 °F - 70.7 °F 87% 29.93 in 10.0 mi Calm Calm - 0.01 in   Scattered Clouds
6:35 PM 75.2 °F - 69.8 °F 83% 29.93 in 10.0 mi Calm Calm - 0.01 in   Clear
6:55 PM 75.9 °F - 71.2 °F 85% 29.93 in 10.0 mi WNW 3.5 mph - 0.01 in   Clear
7:15 PM 75.2 °F - 71.6 °F 89% 29.94 in 10.0 mi West 3.5 mph - N/A   Clear
7:35 PM 74.7 °F - 71.1 °F 88% 29.94 in 10.0 mi Calm Calm - N/A   Clear
7:55 PM 74.7 °F - 71.2 °F 89% 29.95 in 10.0 mi Calm Calm - N/A   Clear
8:15 PM 74.5 °F - 71.2 °F 90% 29.95 in 10.0 mi Calm Calm - N/A   Clear
8:35 PM 74.3 °F - 70.9 °F 89% 29.96 in 10.0 mi ENE 3.5 mph - N/A   Clear
8:55 PM 74.3 °F - 70.7 °F 88% 29.96 in 10.0 mi NE 6.9 mph - N/A   Clear
9:15 PM 74.7 °F - 70.7 °F 87% 29.97 in 10.0 mi NE 6.9 mph - N/A   Clear
9:35 PM 74.8 °F - 70.9 °F 87% 29.98 in 10.0 mi NE 5.8 mph - N/A   Clear
9:55 PM 75.6 °F - 71.8 °F 88% 29.99 in 10.0 mi ENE 6.9 mph - N/A   Clear
10:15 PM 76.1 °F - 72.5 °F 89% 29.99 in 10.0 mi ENE 4.6 mph - N/A   Clear
10:35 PM 75.7 °F - 72.5 °F 90% 29.99 in 10.0 mi ENE 4.6 mph - N/A   Clear
10:55 PM 76.1 °F - 72.7 °F 89% 30.00 in 10.0 mi ENE 6.9 mph - N/A   Clear
11:15 PM 76.1 °F - 72.5 °F 89% 30.00 in 10.0 mi NE 4.6 mph - N/A   Clear
11:35 PM 75.9 °F - 72.5 °F 89% 30.01 in 10.0 mi Calm Calm - N/A   Clear
11:55 PM 75.4 °F - 72.5 °F 91% 30.01 in 10.0 mi Calm Calm - N/A   Clear